User: anonymous   Login
Location: Wiler
(46.4041°N, 7.7840°E)
Time: 14:54:46
(UTC+00:00)
Language:

Cosmos 2184 Rocket - Orbit

View from above orbital plane
View from above orbital plane
View from above satellite
View from above satellite

Ground track
Ground track

The orbit data is extracted from the following two-line orbital elements,

1 21938U 92020B   21162.85294179 -.00000028  00000-0 -45776-4 0  9998
2 21938  82.9296 359.7412 0030569  90.8482 280.3501 13.75284671463079
Epoch (UTC): 11 June 2021 20:28:14
Eccentricity: 0.0030569
inclination: 82.9296°
perigee height: 958 km
apogee height: 1003 km
right ascension of ascending node: 359.7412°
argument of perigee: 90.8482°
revolutions per day: 13.75284671
mean anomaly at epoch: 280.3501°
orbit number at epoch: 46307

The dashed part of the orbit path shows where the satellite is in the earth's shadow,  

DLR